Regional Weather Roundup
Issued by NWS

Home | Current Version | Previous Version | Graphics & Text | Print | Product List | Glossary On
Versions: 1 2 3 4 5 6 7 8 9 10 11 12 13 14 15 16 17 18 19 20 21 22 23 24 25 26 27 28 29 30 31 32 33 34 35 36 37 38 39 40 41 42 43 44 45 46 47 48 49 50
000
ASUS44 KMEG 192100
RWRTN
TENNESSEE HOURLY STATE WEATHER ROUNDUP
NATIONAL WEATHER SERVICE MEMPHIS TN
400 PM CDT SAT AUG 19 2017

TNZ002-004-019-021-049-052-054-088>092-192200-
WEST TENNESSEE

CITY           SKY/WX    TMP DP  RH WIND       PRES   REMARKS
MEMPHIS INTL   MOSUNNY   94  74  52 W5        29.94F HX 104
NWS MEMPHIS      N/A     94 N/A N/A MISG        N/A
JACKSON        SUNNY     92  74  55 NW9       29.95F HX 101
DYERSBURG      PTSUNNY   91  73  55 CALM      29.95F HX  99
$$

TNZ008-025-027-028-033-062-065-066-192200-
NORTH MIDDLE TENNESSEE

CITY           SKY/WX    TMP DP  RH WIND       PRES   REMARKS
NASHVILLE      PTSUNNY   92  65  40 CALM      29.96F HX  94
CLARKSVILLE    MOSUNNY   88  69  53 SW6       29.94F HX  92
SMYRNA         MOSUNNY   89  67  47 E5        29.97F HX  92
CROSSVILLE     SUNNY     82  64  54 W8        30.05F
$$

TNZ061-075-076-078-094-096-097-192200-
SOUTH MIDDLE TENNESSEE

CITY           SKY/WX    TMP DP  RH WIND       PRES   REMARKS
$$

TNZ017-018-042-046-047-192200-
NORTHEAST TENNESSEE

CITY           SKY/WX    TMP DP  RH WIND       PRES   REMARKS
TRI CITIES     SUNNY     85  65  51 VRB5      30.01F
$$

TNZ012-013-036-069-073-074-192200-
CENTRAL EAST TENNESSEE

CITY           SKY/WX    TMP DP  RH WIND       PRES   REMARKS
KNOXVILLE      SUNNY     87  60  40 CALM      29.97F
OAK RIDGE      SUNNY     87  64  46 SE6       29.99F
GATLINBURG     SUNNY     88  61  40 NW5       29.97F
$$

TNZ083-085-099-192200-
SOUTHEAST TENNESSEE

CITY           SKY/WX    TMP DP  RH WIND       PRES   REMARKS
CHATTANOOGA    MOSUNNY   91  65  41 W3        29.98F HX  93
$$

SKY/WX REPORTED AS FAIR MEANS FEW OR NO CLOUDS BELOW
12 THOUSAND FEET.





USA.gov is the U.S. government's official web portal to all federal, state and local government web resources and services.